Orbital elements:
2022 MZ1                                                 Earth MOID = 0.0567 AU
Epoch 2022 Aug. 9.0 TT = JDT 2459800.5                  Veres                   
M 343.50002              (2000.0)            P               Q                  
n   0.72367361     Peri.   82.57059     +0.76939455     +0.00531676             
a   1.2286859      Node   275.40609     -0.30543475     +0.88130558             
e   0.2970457      Incl.   39.91165     +0.56101840     +0.47251688             
P   1.36           H   21.93          G   0.15           U   8                  
Residuals in seconds of arc
220624 W94  0.8+  0.3+    220625 595  0.4+  0.4-    220625 G34  0.1-  0.5+
220624 W94  0.6+  0.6-    220625 958  0.2+  0.7+    220625 203  0.2-  0.4-
220624 W94  0.2+  0.5-    220625 I93  0.4+  0.4+    220625 G34  0.1+  0.5+
220624 W95  0.8+  0.0     220625 I93  0.0   0.4+    220625 204  0.2+  0.2+
220624 W95  0.4+  0.5+    220625 I93  0.0   0.5+    220625 203  0.2+  0.0
220624 W95  0.6+  0.5-    220625 Y00  0.0   0.5+    220625 Z80  0.2+  0.5-
220624 W95  0.8+  0.2+    220625 Y00  0.3-  0.3+    220625 203  0.1-  0.1-
220624 W95  0.6+  0.6-    220625 Y00  0.0   0.3+    220625 Z80  0.4+  0.4-
220624 W95  0.5+  0.0     220625 595  0.2-  0.2-    220626 Z43  0.2+  0.1+
220624 L18  0.6-  1.0-    220625 L01  0.1-  0.4+    220626 Z43  0.0   0.3+
220624 L18  0.0   0.4+    220625 L01  0.3-  0.1+    220626 Z43  0.2+  0.2+
220624 L18  0.5+  0.6-    220625 595  0.1-  0.0     220626 J95  0.4+  0.1-
220624 G15  0.6-  0.8-    220625 L01  0.2-  0.1-    220626 J95  0.1+  0.1+
220624 G15  1.6-  0.4+    220625 L01  0.3-  0.3+    220626 J95  0.2+  0.1-
220624 G15  2.3-  0.3-    220625 L01  0.3-  0.4+    220626 J95  0.0   0.1+
220624 L18  0.3+  0.1-    220625 C82  0.2+  2.1+    220626 J69  0.4-  0.3+
220624 L18  0.4-  0.8+    220625 C82  0.2+  1.7+    220626 J69  0.1+  0.0
220624 L18  0.2+  0.5-    220625 C82  0.6-  1.1+    220626 K38  0.3-  0.0
220624 595  0.4+  0.3+    220625 C82  0.9-  0.7+    220626 J69  0.3+  0.9+
220624 958  0.4+  0.6+    220625 C82  0.4+  0.5+    220626 M21  0.2+  0.1+
220624 L01  0.4-  0.4+    220625 G34  0.0   0.7+    220626 K38  0.1-  0.0
220625 L01  0.3-  0.3-    220625 G34  0.2+  0.4+    220626 M21  0.0   0.0
220625 L01  0.1-  0.4-    220625 204  0.1-  0.4+    220626 K38  0.1+  0.1+
220625 595  0.1-  0.0     220625 G34  0.4+  0.4+    220626 718  0.0   0.9+
220625 L01  0.1+  0.0     220625 G34  0.0   0.4+    220626 718  0.5-  0.1-
220625 958  0.6+  0.8+    220625 204  0.1-  0.0     220626 718  0.8-  0.2-

Ephemeris:
2022 MZ1                 a,e,i = 1.23, 0.30, 40                  q = 0.8637
Date    TT    R. A. (2000) Decl.     Delta      r    Elong.  Phase     V
2022 05 27    22 10 11.8 -59 55 53   0.4120  1.2099   108.7    52.5    22.3
...
2022 06 11    22 09 31.4 -50 33 27   0.2255  1.1385   117.9    52.0    20.9
...
2022 06 19    21 53 30.8 -35 04 04   0.1331  1.0999   126.2    48.2    19.6
...
2022 06 25    21 27 11.5 -02 21 11   0.08410 1.0711   128.7    47.8    18.5
2022 06 26    21 20 52.7 +06 10 52   0.08052 1.0663   126.4    50.1    18.5
2022 06 27    21 13 49.9 +15 15 40   0.07892 1.0616   123.0    53.5    18.5
...
2022 07 03    20 10 02.7 +59 20 08   0.1080  1.0334    95.9    78.1    19.9
...
2022 07 11    17 20 30.7 +77 28 50   0.1919  0.9973    78.8    90.3    21.5
...
2022 07 26    13 11 09.8 +77 10 06   0.3636  0.9366    67.2    91.9    22.8

M. P. C. Staff               (C) Copyright 2022 MPC           M.P.E.C. 2022-M76




More information about the Iaude mailing list